Home > Weather > Chengdu > Past weeks

Flag for China Weather for the Past 2 Weeks in Chengdu, Sichuan, China

Now
41 °F

Fog.


Feels Like: 41 °F
Forecast: 33 / 58 °F
Wind: 1 mph from North

Location: Chengdu Airport

Current Time: Feb 6, 2016 at 8:27:25 AM

Latest Report: Feb 6, 2016 at 7:00 AM


Visibility: 1 mi

Pressure: 30.45 "Hg

Humidity: 100%

Dew point: 41 °F

Location of ChengduLocation

Historic Weather in Chengdu — Graph

°F

Chengdu Temperature Yesterday

Maximum temperature yesterday: 54 °F (at 2:00 PM)
Minimum temperature yesterday: 45 °F (at 6:00 AM)
Average temperature yesterday: 48 °F

High & Low Weather Summary for the Past Weeks

 TemperatureHumidityPressure
High55 °F (Feb 4, 2:00 PM)100% (Jan 24, 7:00 AM)30.89 "Hg (Jan 24, 7:00 AM)
Low27 °F (Jan 25, 5:00 AM)24% (Jan 24, 4:00 PM)30.04 "Hg (Jan 27, 3:00 PM)
Average42 °F65%30.37 "Hg
* Reported Jan 22 6:00 AM — Feb 6 6:00 AM, Chengdu, Weather by CustomWeather, © 2016

Note: Actual official high and low records may vary slightly from our data, if they occured in-between our weather recording intervals... More about our weather records

Advertising

Chengdu Weather History for the Previous 24 Hours

 ConditionsComfort  
Time TempWeatherWind HumidityBarometerVisibility
6:00 AM
Sat, Feb 6
41 °FFog.No wind100%30.45 "Hg2 mi
5:00 AM43 °FFog.1 mph87%30.45 "Hg2 mi
4:00 AM45 °FFog.1 mph87%30.48 "Hg3 mi
3:00 AM45 °FFog.No wind87%30.48 "Hg3 mi
2:00 AM46 °FFog.No wind82%30.51 "Hg3 mi
1:00 AM46 °FFog.3 mph82%30.54 "Hg3 mi
12:00 AM46 °FFog.3 mph82%30.54 "Hg2 mi
11:00 PM
Fri, Feb 5
48 °FFog.3 mph76%30.54 "Hg2 mi
10:00 PM48 °FFog.1 mph76%30.54 "Hg3 mi
9:00 PM48 °FFog.1 mph76%30.51 "Hg3 mi
8:00 PM50 °FFog.3 mph71%30.48 "Hg3 mi
7:00 PM50 °FFog.3 mph71%30.42 "Hg3 mi
6:00 PM50 °FScattered clouds.3 mph71%30.39 "Hg3 mi
5:00 PM50 °FScattered clouds.3 mph67%30.36 "Hg3 mi
4:00 PM52 °FSprinkles. Scattered clouds.1 mph58%30.36 "Hg4 mi
3:00 PM52 °FSprinkles. Scattered clouds.No wind62%30.36 "Hg4 mi
2:00 PM54 °FScattered clouds.1 mph58%30.39 "Hg3 mi
1:00 PM52 °FHaze.3 mph62%30.45 "Hg2 mi
12:00 PM50 °FFog.1 mph71%30.48 "Hg2 mi
11:00 AM46 °FFog.1 mph82%30.48 "Hg2 mi
10:00 AM46 °FFog.1 mph82%30.45 "Hg1 mi
9:00 AM45 °FFog.1 mph87%30.45 "Hg2 mi
8:00 AM45 °FFog.No wind87%30.42 "Hg2 mi
Weather by CustomWeather, © 2016

See weather overviewHow to use our weather pages